sat.trackr.live / text

‹ back to catalog

STARLINK-30825

NORAD 58384 · 2023-178L

PAYLOAD ACTIVE UNKNOWN

§ Identity

Operator
Country
US
Launch date
2023-11-20
Launch site
AFWTR
Launch vehicle
Mass (kg)
RCS (m²)

Purposes: comms

External: N2YO · Heavens-Above · Gunter

§ Orbital elements

Epoch: 2026-09-19T06:40:39.004608Z

Period
93.85 min
Inclination
53.1561°
Eccentricity
0.0000779
Mean motion
15.34387610 rev/d
Perigee alt
462.2 km
Apogee alt
463.3 km
Semi-major
6,840.9 km
B*
1.3354e-4
RAAN
177.3850°
Arg perigee
83.6784°
Mean anomaly
276.4307°
Rev number
15,959

§ Raw data

STARLINK-308251 58384U 23178L   26262.27822922  .00004137  00000+0  13354-3 0  99942 58384  53.1561 177.3850 0000779  83.6784 276.4307 15.34387610159597

JSON: /api/v1/satellites/58384 · /tle

For live sub-satellite position, see the globe view (requires WebGL).

§ Visibility from observer

Set your observer location to see the next 7 days of passes ≥ 10°. The values pass through the URL so the page stays shareable.

No JS? Fill the form by hand. The geolocation button needs JavaScript.